TimeEDT,TemperatureF,Dew PointF,Humidity,Sea Level PressureIn,VisibilityMPH,Wind Direction,Wind SpeedMPH,Gust SpeedMPH,PrecipitationIn,Events,Conditions,WindDirDegrees,DateUTC
1:51 AM,48.9,37.9,66,30.77,10.0,SE,5.8,-,N/A,,Scattered Clouds,140,2013-04-09 05:51:00
3:51 AM,48.9,37.9,66,30.71,10.0,SE,5.8,-,N/A,,Mostly Cloudy,130,2013-04-09 07:51:00
4:51 AM,48.9,38.8,68,30.74,10.0,WNW,11.5,-,0.01,,Mostly Cloudy,300,2013-04-09 08:51:00
5:02 AM,46.4,42.8,87,29.99,8.0,Calm,Calm,-,0.01,Thunderstorm,Mostly Cloudy,0,2013-04-09 09:02:00
5:11 AM,46.4,42.8,87,29.98,10.0,Calm,Calm,-,0.01,,Mostly Cloudy,0,2013-04-09 09:11:00
5:51 AM,45.9,41.9,86,30.67,10.0,Variable,3.5,-,0.03,,Scattered Clouds,0,2013-04-09 09:51:00
6:33 AM,44.6,42.8,93,29.94,9.0,Calm,Calm,-,N/A,,Mostly Cloudy,0,2013-04-09 10:33:00
6:51 AM,45.9,43.9,93,30.67,8.0,Calm,Calm,-,N/A,,Overcast,0,2013-04-09 10:51:00
7:51 AM,46.9,43.0,86,30.66,10.0,Calm,Calm,-,N/A,,Overcast,0,2013-04-09 11:51:00
8:14 AM,46.4,42.8,87,29.91,10.0,Calm,Calm,-,N/A,,Overcast,0,2013-04-09 12:14:00
8:51 AM,46.9,43.9,89,30.64,10.0,Calm,Calm,-,N/A,,Overcast,0,2013-04-09 12:51:00
9:51 AM,48.9,45.0,86,30.65,8.0,Variable,4.6,-,N/A,,Overcast,0,2013-04-09 13:51:00
10:32 AM,51.8,46.4,82,29.90,10.0,NNW,3.5,-,N/A,,Scattered Clouds,330,2013-04-09 14:32:00
10:51 AM,54.0,45.9,74,30.63,10.0,North,8.1,-,N/A,,Scattered Clouds,350,2013-04-09 14:51:00
11:51 AM,61.9,46.9,58,30.61,10.0,North,6.9,-,N/A,,Scattered Clouds,350,2013-04-09 15:51:00
12:51 PM,68.9,43.0,39,30.60,10.0,WNW,17.3,36.8,N/A,,Mostly Cloudy,300,2013-04-09 16:51:00
1:51 PM,68.0,43.0,40,30.63,8.0,NW,19.6,28.8,N/A,,Scattered Clouds,310,2013-04-09 17:51:00
3:51 PM,66.9,39.9,37,30.65,10.0,NW,10.4,-,N/A,,Clear,310,2013-04-09 19:51:00
4:51 PM,65.8,38.8,37,30.65,10.0,NNW,11.5,18.4,N/A,,Clear,330,2013-04-09 20:51:00
5:51 PM,64.9,38.8,38,30.70,10.0,WNW,11.5,-,N/A,,Clear,300,2013-04-09 21:51:00
6:51 PM,61.9,41.0,46,30.69,10.0,Calm,Calm,-,N/A,,Clear,0,2013-04-09 22:51:00
7:51 PM,57.9,41.9,55,30.71,10.0,Calm,Calm,-,N/A,,Clear,0,2013-04-09 23:51:00
8:51 PM,59.0,41.0,51,30.76,10.0,Variable,5.8,-,N/A,,Clear,0,2013-04-10 00:51:00
9:51 PM,54.9,41.9,62,30.76,10.0,Calm,Calm,-,N/A,,Clear,0,2013-04-10 01:51:00
10:51 PM,54.9,39.9,57,30.74,10.0,ENE,4.6,-,N/A,,Clear,70,2013-04-10 02:51:00
11:51 PM,50.0,41.9,74,30.71,10.0,SE,8.1,-,N/A,,Partly Cloudy,130,2013-04-10 03:51:00